When you browse on this site, cookies collect data to enhance your experience and personalize the content and advertising you see.
Visit our Privacy Policy to learn more. By continuing to use the site, you agree to this use of cookies and data.
  • In Schweiz
  • Länderverzeichnis
  • Für 7 Tage
  • Wassertemperatur
  • Satellitenkarten
  • Wetterkarte
  • Widgets
  • user-avatar
    Anmelden

    Stündliche Wetter Guangzhou

    Heute, 23 Januar, Mittwoch

    Zeit Temperatur Niederschläge Wind Luftdruck Luftfeuchtigkeit
    00:00 +17°C° 0 mm 2 m/S 766 mmHg 34%
    01:00 +16°C° 0 mm 2 m/S 766 mmHg 35%
    02:00 +15°C° 0 mm 2 m/S 766 mmHg 35%
    03:00 +15°C° 0 mm 2 m/S 766 mmHg 35%
    04:00 +14°C° 0 mm 2 m/S 766 mmHg 35%
    05:00 +14°C° 0 mm 2 m/S 766 mmHg 34%
    06:00 +14°C° 0 mm 2 m/S 766 mmHg 35%
    07:00 +14°C° 0 mm 2 m/S 766 mmHg 35%
    08:00 +13°C° 0 mm 2 m/S 766 mmHg 35%
    09:00 +15°C° 0 mm 2 m/S 767 mmHg 32%
    10:00 +16°C° 0 mm 2 m/S 767 mmHg 28%
    11:00 +17°C° 0 mm 2 m/S 767 mmHg 24%
    12:00 +20°C° 0 mm 1 m/S 766 mmHg 22%
    13:00 +21°C° 0 mm 1 m/S 765 mmHg 19%
    14:00 +22°C° 0 mm 1 m/S 765 mmHg 18%
    15:00 +22°C° 0 mm 1 m/S 764 mmHg 17%
    16:00 +22°C° 0 mm 1 m/S 764 mmHg 16%
    17:00 +23°C° 0 mm 1 m/S 764 mmHg 16%
    18:00 +22°C° 0 mm 1 m/S 764 mmHg 17%
    19:00 +22°C° 0 mm 1 m/S 764 mmHg 18%
    20:00 +22°C° 0 mm 1 m/S 764 mmHg 19%
    21:00 +21°C° 0 mm 1 m/S 764 mmHg 20%
    22:00 +21°C° 0 mm 1 m/S 765 mmHg 21%
    23:00 +20°C° 0 mm 1 m/S 765 mmHg 22%

    Morgen, 24 Januar, Donnerstag

    Zeit Temperatur Niederschläge Wind Luftdruck Luftfeuchtigkeit
    00:00 +20°C° 0 mm 1 m/S 765 mmHg 24%
    01:00 +19°C° 0 mm 1 m/S 765 mmHg 25%
    02:00 +19°C° 0 mm 1 m/S 764 mmHg 27%
    03:00 +18°C° 0 mm 1 m/S 764 mmHg 28%
    04:00 +18°C° 0 mm 1 m/S 764 mmHg 30%
    05:00 +18°C° 0 mm 1 m/S 764 mmHg 31%
    06:00 +16°C° 0 mm 1 m/S 765 mmHg 32%
    07:00 +16°C° 0 mm 1 m/S 765 mmHg 33%
    08:00 +16°C° 0 mm 1 m/S 765 mmHg 34%
    09:00 +19°C° 0 mm 1 m/S 765 mmHg 32%
    10:00 +20°C° 0 mm 1 m/S 766 mmHg 29%
    11:00 +21°C° 0 mm 1 m/S 766 mmHg 26%
    12:00 +22°C° 0 mm 1 m/S 765 mmHg 25%
    13:00 +23°C° 0 mm 1 m/S 765 mmHg 24%
    14:00 +24°C° 0 mm 1 m/S 764 mmHg 23%
    15:00 +25°C° 0 mm 1 m/S 764 mmHg 24%
    16:00 +25°C° 0 mm 1 m/S 763 mmHg 25%
    17:00 +25°C° 0 mm 1 m/S 763 mmHg 26%
    18:00 +24°C° 0 mm 1 m/S 763 mmHg 28%
    19:00 +24°C° 0 mm 1 m/S 764 mmHg 30%
    20:00 +23°C° 0 mm 1 m/S 764 mmHg 31%
    21:00 +23°C° 0 mm 2 m/S 764 mmHg 36%
    22:00 +21°C° 0 mm 2 m/S 764 mmHg 40%
    23:00 +21°C° 0 mm 2 m/S 765 mmHg 44%

    übermorgen, 25 Januar, Freitag

    Zeit Temperatur Niederschläge Wind Luftdruck Luftfeuchtigkeit
    00:00 +20°C° 0 mm 2 m/S 765 mmHg 49%
    01:00 +21°C° 0 mm 1 m/S 765 mmHg 54%
    02:00 +20°C° 0 mm 1 m/S 765 mmHg 58%
    03:00 +20°C° 0 mm 1 m/S 765 mmHg 61%
    04:00 +20°C° 0 mm 1 m/S 764 mmHg 64%
    05:00 +17°C° 0 mm 0 m/S 764 mmHg 67%
    06:00 +17°C° 0 mm 0 m/S 765 mmHg 67%
    07:00 +19°C° 0 mm 1 m/S 765 mmHg 66%
    08:00 +19°C° 0 mm 1 m/S 766 mmHg 66%
    09:00 +20°C° 0 mm 1 m/S 766 mmHg 61%
    10:00 +22°C° 0 mm 1 m/S 767 mmHg 55%
    11:00 +23°C° 0 mm 1 m/S 767 mmHg 49%
    12:00 +24°C° 0 mm 1 m/S 766 mmHg 44%
    13:00 +25°C° 0 mm 1 m/S 765 mmHg 40%
    14:00 +26°C° 0 mm 1 m/S 765 mmHg 35%
    15:00 +26°C° 0 mm 1 m/S 764 mmHg 34%
    16:00 +26°C° 0 mm 1 m/S 764 mmHg 34%
    17:00 +26°C° 0 mm 2 m/S 764 mmHg 33%
    18:00 +26°C° 0 mm 2 m/S 764 mmHg 34%
    19:00 +26°C° 0 mm 1 m/S 765 mmHg 35%
    20:00 +25°C° 0 mm 1 m/S 765 mmHg 36%
    21:00 +25°C° 0 mm 1 m/S 766 mmHg 37%
    22:00 +24°C° 0 mm 1 m/S 766 mmHg 38%
    23:00 +24°C° 0 mm 2 m/S 767 mmHg 38%

    26 Januar, Samstag

    Zeit Temperatur Niederschläge Wind Luftdruck Luftfeuchtigkeit
    00:00 +23°C° 0 mm 2 m/S 766 mmHg 40%
    01:00 +23°C° 0 mm 2 m/S 766 mmHg 41%
    02:00 +21°C° 0 mm 2 m/S 766 mmHg 42%
    03:00 +20°C° 0 mm 2 m/S 766 mmHg 42%
    04:00 +20°C° 0 mm 3 m/S 766 mmHg 43%
    05:00 +19°C° 0 mm 3 m/S 766 mmHg 43%
    06:00 +19°C° 0 mm 3 m/S 767 mmHg 44%
    07:00 +19°C° 0 mm 3 m/S 768 mmHg 44%
    08:00 +19°C° 0 mm 3 m/S 768 mmHg 44%
    09:00 +20°C° 0 mm 3 m/S 769 mmHg 40%
    10:00 +21°C° 0 mm 4 m/S 769 mmHg 35%
    11:00 +22°C° 0 mm 4 m/S 769 mmHg 31%
    12:00 +23°C° 0 mm 4 m/S 768 mmHg 29%
    13:00 +25°C° 0 mm 3 m/S 768 mmHg 27%
    14:00 +26°C° 0 mm 3 m/S 767 mmHg 25%
    15:00 +26°C° 0 mm 3 m/S 766 mmHg 25%
    16:00 +26°C° 0 mm 3 m/S 766 mmHg 25%
    17:00 +26°C° 0 mm 3 m/S 766 mmHg 25%
    18:00 +26°C° 0 mm 3 m/S 766 mmHg 27%
    19:00 +25°C° 0 mm 3 m/S 767 mmHg 28%
    20:00 +24°C° 0 mm 3 m/S 767 mmHg 30%
    21:00 +24°C° 0 mm 3 m/S 768 mmHg 32%
    22:00 +23°C° 0 mm 2 m/S 768 mmHg 35%
    23:00 +21°C° 0 mm 2 m/S 768 mmHg 38%

    27 Januar, Sonntag

    Zeit Temperatur Niederschläge Wind Luftdruck Luftfeuchtigkeit
    00:00 +21°C° 0 mm 2 m/S 768 mmHg 41%
    01:00 +20°C° 0 mm 2 m/S 768 mmHg 44%
    02:00 +20°C° 0 mm 1 m/S 768 mmHg 47%
    03:00 +20°C° 0 mm 1 m/S 768 mmHg 47%
    04:00 +18°C° 0 mm 2 m/S 767 mmHg 47%
    05:00 +18°C° 0 mm 2 m/S 767 mmHg 48%
    06:00 +18°C° 0 mm 2 m/S 768 mmHg 48%
    07:00 +18°C° 0 mm 2 m/S 768 mmHg 49%
    08:00 +17°C° 0 mm 2 m/S 769 mmHg 50%
    09:00 +18°C° 0 mm 2 m/S 769 mmHg 48%
    10:00 +19°C° 0 mm 2 m/S 769 mmHg 46%
    11:00 +20°C° 0 mm 2 m/S 769 mmHg 45%
    12:00 +22°C° 0 mm 1 m/S 768 mmHg 42%
    13:00 +23°C° 0 mm 1 m/S 767 mmHg 39%
    14:00 +24°C° 0 mm 1 m/S 767 mmHg 36%
    15:00 +25°C° 0 mm 1 m/S 766 mmHg 36%
    16:00 +25°C° 0 mm 1 m/S 766 mmHg 35%
    17:00 +25°C° 0 mm 1 m/S 765 mmHg 35%
    18:00 +24°C° 0 mm 1 m/S 765 mmHg 36%
    19:00 +24°C° 0 mm 1 m/S 766 mmHg 38%
    20:00 +24°C° 0 mm 1 m/S 766 mmHg 39%
    21:00 +23°C° 0 mm 2 m/S 766 mmHg 45%
    22:00 +21°C° 0 mm 2 m/S 766 mmHg 50%
    23:00 +21°C° 0 mm 3 m/S 767 mmHg 56%

    28 Januar, Montag

    Zeit Temperatur Niederschläge Wind Luftdruck Luftfeuchtigkeit
    00:00 +20°C° 0 mm 3 m/S 767 mmHg 59%
    01:00 +20°C° 0 mm 2 m/S 766 mmHg 63%
    02:00 +19°C° 0 mm 2 m/S 766 mmHg 66%
    03:00 +19°C° 0 mm 2 m/S 766 mmHg 67%
    04:00 +20°C° 0 mm 1 m/S 766 mmHg 68%
    05:00 +20°C° 0 mm 1 m/S 766 mmHg 69%
    06:00 +19°C° 0 mm 1 m/S 767 mmHg 69%
    07:00 +19°C° 0 mm 1 m/S 767 mmHg 69%
    08:00 +17°C° 0 mm 0 m/S 768 mmHg 69%
    09:00 +20°C° 0 mm 1 m/S 768 mmHg 64%
    10:00 +22°C° 0 mm 1 m/S 768 mmHg 59%
    11:00 +23°C° 0 mm 1 m/S 768 mmHg 54%
    12:00 +23°C° 0 mm 1 m/S 767 mmHg 50%
    13:00 +24°C° 0 mm 1 m/S 766 mmHg 46%
    14:00 +25°C° 0 mm 1 m/S 765 mmHg 41%
    15:00 +26°C° 0 mm 1 m/S 764 mmHg 40%
    16:00 +26°C° 0 mm 1 m/S 764 mmHg 38%
    17:00 +26°C° 0 mm 1 m/S 764 mmHg 37%
    18:00 +26°C° 0 mm 1 m/S 764 mmHg 37%
    19:00 +25°C° 0 mm 1 m/S 764 mmHg 38%
    20:00 +25°C° 0 mm 1 m/S 764 mmHg 38%
    21:00 +24°C° 0 mm 2 m/S 765 mmHg 44%
    22:00 +23°C° 0 mm 2 m/S 765 mmHg 49%
    23:00 +22°C° 0 mm 3 m/S 765 mmHg 54%
    Mehr zeigen